This is the latest recevied weather packets stored in our database for station/object KC5DAQ-25. If no packets are shown the sender has not sent any weather packets the latest 10 day(s).
| Time | Temp. | Humidity | Pressure | Rain* | Wind** | Luminosity | Snow |
|---|---|---|---|---|---|---|---|
| 1777585325 | 22.22° C | 82% | 1000.9 hPa | 0 mm | - | 220 W/m² | - |
| 1777585263 | 22.22° C | 82% | 1000.9 hPa | 0 mm | - | 220 W/m² | - |
| 1777585205 | 22.78° C | 82% | 1000.9 hPa | 0 mm | - | 220 W/m² | - |
| 1777585145 | 22.78° C | 82% | 1001 hPa | 0 mm | - | 220 W/m² | - |
| 1777585083 | 22.78° C | 82% | 1001 hPa | 0 mm | - | 215 W/m² | - |
| 1777585023 | 22.78° C | 82% | 1001.1 hPa | 0 mm | - | 215 W/m² | - |
| 1777584963 | 22.78° C | 82% | 1001.1 hPa | 0 mm | - | 215 W/m² | - |
| 1777584904 | 22.78° C | 83% | 1001.1 hPa | 0 mm | - | 257 W/m² | - |
| 1777584844 | 22.78° C | 83% | 1001.1 hPa | 0 mm | - | 257 W/m² | - |
| 1777584784 | 22.78° C | 83% | 1001.1 hPa | 0 mm | - | 320 W/m² | - |
| 1777584725 | 22.22° C | 83% | 1001.1 hPa | 0 mm | - | 320 W/m² | - |
| 1777584663 | 22.22° C | 83% | 1001 hPa | 0 mm | - | 320 W/m² | - |
| 1777584604 | 22.22° C | 83% | 1001.1 hPa | 0 mm | - | 320 W/m² | - |
| 1777584543 | 22.22° C | 83% | 1001 hPa | 0 mm | - | 320 W/m² | - |
| 1777584483 | 22.22° C | 83% | 1001 hPa | 0 mm | - | 320 W/m² | - |
| 1777584423 | 22.22° C | 83% | 1001 hPa | 0 mm | - | 320 W/m² | - |
| 1777584363 | 22.22° C | 83% | 1001 hPa | 0 mm | - | 320 W/m² | - |
| 1777584304 | 22.22° C | 83% | 1000.8 hPa | 0 mm | - | 320 W/m² | - |
| 1777584245 | 22.22° C | 83% | 1000.8 hPa | 0 mm | - | 281 W/m² | - |
| 1777584183 | 22.22° C | 83% | 1000.8 hPa | 0 mm | - | 281 W/m² | - |
| 1777584122 | 22.22° C | 83% | 1000.7 hPa | 0 mm | - | 274 W/m² | - |
| 1777584062 | 22.22° C | 83% | 1000.7 hPa | 0 mm | - | 266 W/m² | - |
| 1777584005 | 22.22° C | 83% | 1000.7 hPa | 0 mm | - | 292 W/m² | - |
| 1777583943 | 22.22° C | 83% | 1000.8 hPa | 0 mm | - | 292 W/m² | - |
| 1777583882 | 22.22° C | 83% | 1000.8 hPa | 0 mm | - | 292 W/m² | - |
* Rain latest hour (hover to see other rain measurements)
** Current wind speed in m/s (hover to see current wind gust speed)